Regional Weather Roundup
Issued by NWS Sioux Falls, SD

Home | Current Version | Previous Version | Graphics & Text | Print | Product List | Glossary Off
Versions: 1 2 3 4 5 6 7 8 9 10 11 12 13 14 15 16 17 18 19 20 21 22 23 24 25 26 27 28 29 30 31 32 33 34 35 36 37 38 39 40 41 42 43 44 45 46 47 48 49 50

000
ASUS43 KFSD 170310
RWRFSD

WEATHER ROUNDUP FOR SE SOUTH DAKOTA/SW MINNESOTA/NW IOWA
NATIONAL WEATHER SERVICE SIOUX FALLS SD
1000 PM CDT MON OCT 16 2017

NOTE: "FAIR" INDICATES FEW OR NO CLOUDS BELOW 12,000 FEET WITH NO
SIGNIFICANT WEATHER AND OR OBSTRUCTIONS TO VISIBILITY.


SDZ038>040-050-052>070-170400-
SOUTHEAST SOUTH DAKOTA

CITY           SKY/WX    TMP DP  RH WIND       PRES   REMARKS
BROOKINGS      CLEAR     51  40  65 SW3       30.00S
CHAMBERLAIN    CLEAR     51  42  71 CALM      30.02S
HURON          CLEAR     52  41  66 SW6       29.99R
MADISON        FAIR      55  39  54 W8        30.01S
MITCHELL       CLOUDY    51  42  71 SW3       30.01S
SIOUX FALLS    CLOUDY    50  40  68 CALM      30.01R
WINNER         FAIR      49  40  71 SW6       30.05R
YANKTON        CLEAR     60  40  47 S7        30.03S
$$

MNZ071-072-080-081-089-090-097-098-170400-
SOUTHWEST MINNESOTA

CITY           SKY/WX    TMP DP  RH WIND       PRES   REMARKS
FAIRMONT       PTCLDY    58  39  49 SW12      30.01S
JACKSON        PTCLDY    57  37  47 SW14G21   30.01S
LUVERNE        PTCLDY    45  37  76 SE3       30.02R
MARSHALL       CLEAR     53  39  59 SW9       29.98R
MONTEVIDEO     CLEAR     54  37  54 W3        29.96S
PIPESTONE      CLEAR     50  39  66 CALM      30.01S
REDWOOD FALLS  CLEAR     54  38  54 SW13      29.95F
TRACY          CLEAR     55  41  58 SW12      29.99R
WORTHINGTON    PTCLDY    59  39  47 SW12G18   30.01S
$$

IAZ001>003-012>014-020>022-031-032-NEZ013-014-SDZ071-170400-
NORTHWEST IOWA

CITY           SKY/WX    TMP DP  RH WIND       PRES   REMARKS
CHEROKEE       CLEAR     51  40  65 S6        30.06R
DENISON        CLEAR     57  39  51 S7G14     30.11S
ESTHERVILLE    CLEAR     53  40  61 S12       30.02F
LE MARS        CLEAR     55  41  58 S7        30.04S
ORANGE CITY    PTCLDY    55  43  62 S7        30.04S
SHELDON        CLOUDY    57  39  51 S9        30.01S
SIOUX CITY     PTCLDY    52  41  66 VRB5      30.06R
SPENCER        PTCLDY    53  39  59 S9        30.03F
STORM LAKE     CLEAR     54  39  58 S8        30.07R
$$

ABBREVIATIONS USED IN REMARKS
   TC - TEMPERATURE IN CELSIUS
  WCI - WIND CHILL INDEX
   HX - HEAT INDEX
  VSB - VISIBILITY





USA.gov is the U.S. government's official web portal to all federal, state and local government web resources and services.